"Pseudo-MPEC" for P11JSYw

Created 2023 Sep 19 16:22:27 UT using Find_Orb

Click here for an explanation of pseudo-MPECs

 
 Astrometry: 
     P11JSYw* C2023 09 18vw;i8EN1K^Bg6(D8\s'aBIB`e86b-AstrometryYYKvqJJK6u/X=F51
     P11JSYw  C2023 09 18y4EC'qbC91eSP#Cl0redacted;#%5yv`#!Pxeb;dv:.WvY??r*^%F51
     P11JSYw  C2023 09 18ZHK,$\V[^,Z#HOgxDOU@.t9Z$Q_8mb?t3%jlaFMy,aTkjR5s./(\F51
     P11JSYw  C2023 09 18;--!dOQ+?wG?%F%f#3WG?F@'/de?YsufN_clickm#jxvhEomFt3IF51
     P11JSYw  C2023 09 18-EpEj.UmrtfQmaqAdxj=t2iY=me$85+]Z9lMegmp4Tg0T,.xI)1?F51
     P11JSYw  C2023 09 18Ljhere\j7!H)7SgKforF3R1TE[CSIS-explanation/a_XDJQKo3F51
     P11JSYw KC2023 09 19.30146323 41 12.188-02 03 49.86   ~9J87 21.35GVNEOCPI52
     P11JSYw KC2023 09 19.30651023 41 12.397-02 03 53.53   ~9J87 21.75GVNEOCPI52
     P11JSYw KC2023 09 19.31155523 41 12.628-02 03 57.13   ~9J87 21.11GVNEOCPI52
     P11JSYw KC2023 09 19.31660523 41 12.847-02 04 00.41   ~9J87 21.44GVNEOCPI52

Station data:
(F51) Pan-STARRS 1, Haleakala  (N20.707234 W156.255910)  US/Hawaii.
   Observers J. Bulger, T. Lowe, A. Schultz, M. Willman. Measurers K.
   Chambers, S. Chastel, T. de Boer, L. Denneau, J. Fairlamb, H. Flewelling,
   M. Huber, C.-C. Lin, E. Magnier, Y. Ramanjooloo, R. Wainscoat, R. Weryk.
   1.8-m Ritchey-Chrétien + CCD.
(I52) Steward Observatory, Mt. Lemmon Station  (N32.442544 W110.788920)
   US/Arizona.  Observers T. A. Pruyne, B. M. Africano, E. J. Christensen, G.
   A. Farneth, D. C. Fuls, A. R. Gibbs, A. D. Grauer, H. Gröller, J. A.
   Johnson, R. A. Kowalski, S. M. Larson, G. J. Leonard, D. Rankin, R. L.
   Seaman, F. C. Shelly, K. W. Wierzchoś. 1.0-m prime focus + CCD.

Orbital elements:  P11JSYw
   Perihelion 2023 Sep 29.49729 +/- 8.91 TT = 11:56:06 (JD 2460216.99729)
Epoch 2023 Sep 19.0 TT = JDT 2460206.5   Earth MOID: 0.3227   Ma: 0.0683
M 357.17925769 +/- 2.3              (J2000 ecliptic)             AutoNEOCP
n   0.26871134 +/- 0.00858          Peri.  187.96365 +/- 6
a   2.37836611 +/- 0.0506           Node   175.49216 +/- 0.0017
e   0.4427083 +/- 0.0133            Incl.    4.85451 +/- 0.054
P   3.67                   H 23.41  G  0.15   U  9.6
q 1.32544359 +/- 0.0051    Q 3.43128863 +/- 0.104
From 10 observations 2023 Sept. 18-19 (22.8 hr); mean residual 0".08
Residuals in arcseconds: 
230918 F51  .02+  .01+    230918 F51  .05-  .11-    230919 I52  .06+  .12-    
230918 F51  .04-  .08-    230918 F51  .05+  .09+    230919 I52  .07+  .17+    
230918 F51  .02+  .03-    230919 I52  .00   .03+    
230918 F51  .01+  .12+    230919 I52  .13-  .08-    

Ephemerides (geocentric):
Date (UTC) HH   RA             Dec           delta  r     elong  mag " sig PA
---- --------  ------------   ------------  ------ ------ -----  --- --------
2023 09 19 16  23 41 31.497   -02 07 52.58  .32446 1.3290 178.8 21.7 .892 145
2023 09 19 17  23 41 33.702   -02 08 22.01  .32445 1.3290 178.7 21.7 1.01 144
2023 09 19 18  23 41 35.908   -02 08 51.44  .32443 1.3290 178.7 21.7 1.13 143
2023 09 19 19  23 41 38.114   -02 09 20.87  .32442 1.3289 178.7 21.7 1.26 142
2023 09 19 20  23 41 40.321   -02 09 50.29  .32440 1.3289 178.6 21.7 1.39 141
2023 09 19 21  23 41 42.529   -02 10 19.72  .32439 1.3289 178.6 21.7 1.54 140
2023 09 19 22  23 41 44.737   -02 10 49.15  .32437 1.3289 178.6 21.7 1.68 140
2023 09 19 23  23 41 46.945   -02 11 18.57  .32436 1.3288 178.5 21.7 1.84 139
2023 09 20 00  23 41 49.155   -02 11 48.00  .32435 1.3288 178.5 21.8 2.00 139
2023 09 20 01  23 41 51.365   -02 12 17.42  .32433 1.3288 178.4 21.8 2.16 138
2023 09 20 02  23 41 53.575   -02 12 46.84  .32432 1.3287 178.4 21.8 2.33 138
2023 09 20 03  23 41 55.786   -02 13 16.26  .32431 1.3287 178.4 21.8 2.51 138
2023 09 20 04  23 41 57.997   -02 13 45.68  .32430 1.3287 178.3 21.8 2.69 137
2023 09 20 05  23 42 00.210   -02 14 15.10  .32428 1.3287 178.3 21.8 2.88 137
2023 09 20 06  23 42 02.422   -02 14 44.52  .32427 1.3286 178.3 21.8 3.08 137
2023 09 20 07  23 42 04.636   -02 15 13.94  .32426 1.3286 178.2 21.8 3.28 137
2023 09 20 08  23 42 06.850   -02 15 43.35  .32425 1.3286 178.2 21.8 3.49 136
2023 09 20 09  23 42 09.064   -02 16 12.76  .32424 1.3285 178.1 21.8 3.70 136
2023 09 20 10  23 42 11.279   -02 16 42.17  .32422 1.3285 178.1 21.8 3.92 136
2023 09 20 11  23 42 13.495   -02 17 11.58  .32421 1.3285 178.1 21.8 4.15 136
2023 09 20 12  23 42 15.711   -02 17 40.98  .32420 1.3285 178.0 21.8 4.38 136
2023 09 20 13  23 42 17.928   -02 18 10.38  .32419 1.3284 178.0 21.8 4.62 136
2023 09 20 14  23 42 20.146   -02 18 39.78  .32418 1.3284 178.0 21.8 4.87 135
2023 09 20 15  23 42 22.364   -02 19 09.18  .32417 1.3284 177.9 21.8 5.12 135
2023 09 20 16  23 42 24.583   -02 19 38.58  .32416 1.3283 177.9 21.8 5.37 135
2023 09 20 17  23 42 26.803   -02 20 07.97  .32415 1.3283 177.9 21.8 5.64 135
2023 09 20 18  23 42 29.023   -02 20 37.36  .32414 1.3283 177.8 21.8 5.90 135
2023 09 20 19  23 42 31.244   -02 21 06.74  .32413 1.3283 177.8 21.8 6.18 135
2023 09 20 20  23 42 33.465   -02 21 36.12  .32412 1.3282 177.7 21.8 6.46 135
2023 09 20 21  23 42 35.687   -02 22 05.50  .32412 1.3282 177.7 21.8 6.75 135
2023 09 20 22  23 42 37.910   -02 22 34.87  .32411 1.3282 177.7 21.8 7.04 135
2023 09 20 23  23 42 40.133   -02 23 04.25  .32410 1.3282 177.6 21.8 7.34 135
2023 09 21 00  23 42 42.357   -02 23 33.61  .32409 1.3281 177.6 21.8 7.64 134
2023 09 21 01  23 42 44.582   -02 24 02.98  .32408 1.3281 177.6 21.8 7.96 134
2023 09 21 02  23 42 46.807   -02 24 32.33  .32408 1.3281 177.5 21.8 8.27 134
2023 09 21 03  23 42 49.033   -02 25 01.69  .32407 1.3281 177.5 21.8 8.60 134
2023 09 21 04  23 42 51.260   -02 25 31.04  .32406 1.3280 177.4 21.8 8.93 134
2023 09 21 05  23 42 53.487   -02 26 00.38  .32405 1.3280 177.4 21.8 9.26 134
2023 09 21 06  23 42 55.715   -02 26 29.73  .32405 1.3280 177.4 21.8 9.60 134
2023 09 21 07  23 42 57.944   -02 26 59.06  .32404 1.3280 177.3 21.8 9.95 134
2023 09 21 08  23 43 00.173   -02 27 28.39  .32404 1.3279 177.3 21.8 10.3 134
2023 09 21 09  23 43 02.403   -02 27 57.72  .32403 1.3279 177.3 21.8 10.7 134
2023 09 21 10  23 43 04.634   -02 28 27.04  .32402 1.3279 177.2 21.8 11.0 134
2023 09 21 11  23 43 06.865   -02 28 56.36  .32402 1.3278 177.2 21.8 11.4 134
2023 09 21 12  23 43 09.097   -02 29 25.67  .32401 1.3278 177.1 21.8 11.8 134
2023 09 21 13  23 43 11.330   -02 29 54.97  .32401 1.3278 177.1 21.8 12.2 134
2023 09 21 14  23 43 13.564   -02 30 24.27  .32400 1.3278 177.1 21.8 12.6 134
2023 09 21 15  23 43 15.798   -02 30 53.57  .32400 1.3278 177.0 21.8 13.0 134